| time (UTC) | temp F | wind direction | speed MPH | gust MPH | rain 1hr in | rain 24hr in | rain mn in | humidity % | barometer mb |
| 20260502221536 | 48 | 111 | 3.0 | 11.0 | 0.00 | 0.00 | 0.00 | 45 | 1013.9 |
| 20260502220043 | 49 | 195 | 6.0 | 13.0 | 0.00 | 0.00 | 0.00 | 44 | 1013.7 |
| 20260502214540 | 48 | 175 | 5.0 | 12.0 | 0.00 | 0.00 | 0.00 | 45 | 1013.7 |
| 20260502213043 | 49 | 145 | 4.0 | 10.0 | 0.00 | 0.00 | 0.00 | 46 | 1013.5 |
| 20260502211551 | 49 | 175 | 3.0 | 8.0 | 0.00 | 0.00 | 0.00 | 46 | 1013.6 |
| 20260502210039 | 49 | 141 | 4.0 | 12.0 | 0.00 | 0.00 | 0.00 | 50 | 1013.5 |
| 20260502204537 | 50 | 135 | 5.0 | 14.0 | 0.00 | 0.00 | 0.00 | 46 | 1013.8 |
| 20260502203036 | 50 | 131 | 8.0 | 13.0 | 0.00 | 0.00 | 0.00 | 42 | 1013.6 |
| 20260502201535 | 50 | 110 | 6.0 | 15.0 | 0.00 | 0.00 | 0.00 | 43 | 1013.7 |
| 20260502200045 | 50 | 105 | 5.0 | 14.0 | 0.00 | 0.00 | 0.00 | 43 | 1013.7 |
| 20260502194538 | 51 | 149 | 7.0 | 18.0 | 0.00 | 0.00 | 0.00 | 41 | 1013.8 |
| 20260502193046 | 50 | 108 | 9.0 | 20.0 | 0.00 | 0.00 | 0.00 | 41 | 1013.8 |
| 20260502191555 | 51 | 108 | 8.0 | 16.0 | 0.00 | 0.00 | 0.00 | 43 | 1013.7 |
| 20260502190043 | 51 | 100 | 5.0 | 12.0 | 0.00 | 0.00 | 0.00 | 40 | 1013.7 |
| 20260502184543 | 50 | 98 | 6.0 | 15.0 | 0.00 | 0.00 | 0.00 | 43 | 1013.8 |
| 20260502183040 | 51 | 175 | 7.0 | 15.0 | 0.00 | 0.00 | 0.00 | 41 | 1013.8 |
| 20260502181551 | 51 | 166 | 5.0 | 15.0 | 0.00 | 0.00 | 0.00 | 42 | 1013.9 |
| 20260502163036 | 51 | 191 | 6.0 | 14.0 | 0.00 | 0.00 | 0.00 | 41 | 1014.5 |
| 20260502161544 | 51 | 83 | 4.0 | 12.0 | 0.00 | 0.00 | 0.00 | 42 | 1014.5 |
| 20260502151550 | 49 | 193 | 4.0 | 12.0 | 0.00 | 0.00 | 0.00 | 44 | 1014.9 |
| 20260502123045 | 40 | 175 | 2.0 | 5.0 | 0.00 | 0.00 | 0.00 | 71 | 1015.1 |
| 20260502121542 | 40 | 99 | 1.0 | 5.0 | 0.00 | 0.00 | 0.00 | 72 | 1015.1 |
| 20260502114545 | 39 | 101 | 0.0 | 3.0 | 0.00 | 0.00 | 0.00 | 72 | 1015.3 |
| 20260502113040 | 39 | 169 | 1.0 | 4.0 | 0.00 | 0.00 | 0.00 | 72 | 1015.2 |
| 20260502111546 | 39 | 116 | 0.0 | 3.0 | 0.00 | 0.00 | 0.00 | 72 | 1014.9 |
| 20260502110042 | 39 | 185 | 1.0 | 3.0 | 0.00 | 0.00 | 0.00 | 71 | 1015.0 |
| 20260502104541 | 39 | 0 | 1.0 | 4.0 | 0.00 | 0.00 | 0.00 | 71 | 1014.9 |
| 20260502103043 | 39 | 156 | 1.0 | 4.0 | 0.00 | 0.00 | 0.00 | 70 | 1014.7 |
| 20260502101537 | 40 | 185 | 1.0 | 4.0 | 0.00 | 0.00 | 0.00 | 69 | 1015.0 |
| 20260502070042 | 44 | 118 | 3.0 | 7.0 | 0.00 | 0.00 | 0.00 | 59 | 1014.7 |
| 20260502064538 | 44 | 185 | 2.0 | 6.0 | 0.00 | 0.00 | 0.00 | 60 | 1014.7 |
| 20260502063054 | 44 | 168 | 4.0 | 9.0 | 0.00 | 0.00 | 0.00 | 62 | 1014.9 |
| 20260502061541 | 45 | 143 | 2.0 | 8.0 | 0.00 | 0.00 | 0.00 | 70 | 1015.0 |
| 20260502060037 | 45 | 118 | 4.0 | 9.0 | 0.00 | 0.00 | 0.00 | 71 | 1015.1 |
| 20260502054546 | 46 | 135 | 2.0 | 8.0 | 0.00 | 0.00 | 0.00 | 72 | 1015.1 |
| 20260502053053 | 46 | 97 | 2.0 | 7.0 | 0.00 | 0.00 | 0.00 | 71 | 1015.0 |
| 20260502051537 | 46 | 189 | 4.0 | 8.0 | 0.00 | 0.00 | 0.00 | 71 | 1015.1 |
| 20260502050035 | 46 | 180 | 2.0 | 8.0 | 0.00 | 0.00 | 0.00 | 70 | 1015.1 |
| 20260502044544 | 47 | 141 | 3.0 | 10.0 | 0.00 | 0.00 | 0.00 | 69 | 1015.2 |
| 20260502043044 | 47 | 164 | 4.0 | 8.0 | 0.00 | 0.00 | 0.00 | 68 | 1015.4 |
| 20260502041538 | 47 | 156 | 4.0 | 9.0 | 0.00 | 0.00 | 0.00 | 67 | 1015.4 |
| 20260502040040 | 47 | 166 | 2.0 | 12.0 | 0.00 | 0.00 | 0.00 | 66 | 1015.3 |
| 20260502034537 | 48 | 166 | 5.0 | 9.0 | 0.00 | 0.00 | 0.00 | 66 | 1015.3 |
| 20260502033040 | 48 | 170 | 3.0 | 11.0 | 0.00 | 0.00 | 0.00 | 67 | 1015.5 |
| 20260502031536 | 49 | 175 | 5.0 | 12.0 | 0.00 | 0.00 | 0.00 | 66 | 1015.4 |
| 20260502030048 | 49 | 139 | 4.0 | 10.0 | 0.00 | 0.00 | 0.00 | 66 | 1015.4 |
| 20260502024541 | 50 | 123 | 3.0 | 11.0 | 0.00 | 0.00 | 0.00 | 65 | 1015.3 |
| 20260502023039 | 50 | 175 | 4.0 | 10.0 | 0.00 | 0.00 | 0.00 | 65 | 1015.0 |
| 20260502021537 | 50 | 175 | 3.0 | 9.0 | 0.00 | 0.00 | 0.00 | 66 | 1014.6 |
| 20260502020040 | 50 | 152 | 2.0 | 9.0 | 0.00 | 0.00 | 0.00 | 67 | 1014.6 |
| 20260502014538 | 51 | 136 | 3.0 | 8.0 | 0.00 | 0.00 | 0.00 | 67 | 1014.1 |
| 20260502013041 | 51 | 120 | 2.0 | 8.0 | 0.00 | 0.00 | 0.00 | 66 | 1013.8 |
| 20260502011540 | 52 | 185 | 3.0 | 11.0 | 0.00 | 0.00 | 0.00 | 64 | 1013.8 |
| 20260502010038 | 53 | 169 | 5.0 | 12.0 | 0.00 | 0.00 | 0.00 | 60 | 1013.4 |
| 20260502004536 | 54 | 150 | 4.0 | 14.0 | 0.00 | 0.00 | 0.00 | 57 | 1013.1 |
| 20260502003043 | 57 | 194 | 7.0 | 12.0 | 0.00 | 0.00 | 0.00 | 50 | 1012.7 |
| 20260502001538 | 58 | 162 | 5.0 | 12.0 | 0.00 | 0.00 | 0.00 | 44 | 1011.9 |
| 20260502000048 | 59 | 136 | 6.0 | 13.0 | 0.00 | 0.00 | 0.00 | 41 | 1011.6 |
| 20260501234540 | 60 | 121 | 2.0 | 9.0 | 0.00 | 0.00 | 0.00 | 39 | 1011.4 |
| 20260501233036 | 61 | 137 | 3.0 | 10.0 | 0.00 | 0.00 | 0.00 | 37 | 1011.1 |
| 20260501231546 | 61 | 89 | 3.0 | 9.0 | 0.00 | 0.00 | 0.00 | 37 | 1011.0 |
| 20260501230050 | 62 | 139 | 3.0 | 10.0 | 0.00 | 0.00 | 0.00 | 36 | 1011.1 |
| 20260501224551 | 62 | 128 | 6.0 | 11.0 | 0.00 | 0.00 | 0.00 | 34 | 1011.2 |
| 20260501223050 | 63 | 72 | 6.0 | 16.0 | 0.00 | 0.00 | 0.00 | 34 | 1011.0 |